Location: Berkeley
(37.8716°N, 122.2727°W)
Time: 19:56:15
(UTC-07:00)

Envisat - Visible Passes

Search period start: 20 September 2021 00:00
Search period end: 30 September 2021 00:00
Orbit: 764 x 766 km, 98.2° (Epoch: 20 September)

Date Brightness Start Highest point End Pass type
(mag) Time Alt. Az. Time Alt. Az. Time Alt. Az.
20 Sep 5.8 05:10:04 10° NE 05:13:18 17° E 05:16:30 10° SE visible
21 Sep 3.4 06:10:43 10° NNE 06:15:47 70° ESE 06:20:51 10° S visible
22 Sep 5.0 05:34:23 10° NE 05:38:50 30° E 05:43:14 10° SSE visible
23 Sep 6.0 04:59:26 10° ENE 05:01:40 13° E 05:03:53 10° ESE visible
24 Sep 3.8 05:59:17 10° NNE 06:04:16 54° E 06:09:13 10° S visible
25 Sep 5.4 05:23:12 10° NE 05:27:15 23° E 05:31:15 10° SSE visible
26 Sep 3.0 06:24:30 10° N 06:29:36 84° WNW 06:34:41 10° SSW visible
27 Sep 4.4 05:47:54 10° NNE 05:52:43 42° E 05:57:30 10° S visible
28 Sep 5.8 05:12:11 10° NE 05:15:38 18° E 05:19:05 10° SE visible
29 Sep 3.2 06:13:00 10° NNE 06:18:06 76° ESE 06:23:11 10° S visible
